START_TIME,STEP,MOV.,EG07,t_acc.,EG08,t_acc.,EG09,t_acc.,EB05,t_acc.,EBP05,t_acc.
1979-03-09 21:00:20.340 ,1,0,0.,1.2,0.,1.2,0.,1.2,,0.0,,0.0
1979-03-09 21:00:21.540 ,1,0,0.,1.2,0.,1.2,0.,1.2,,0.0,,0.0
1979-03-09 21:00:22.740 ,1,0,0.,1.2,0.,1.2,0.,1.2,,0.0,,0.0
1979-03-09 21:00:23.940 ,1,0,0.,1.2,0.,1.2,0.,1.2,,0.0,,0.0
1979-03-09 21:00:25.140 ,1,0,0.,1.2,0.,1.2,0.,1.2,,0.0,,0.0
1979-03-09 21:00:26.340 ,1,0,0.,1.2,0.,1.2,0.,1.2,,0.0,,0.0
1979-03-09 21:00:27.540 ,1,0,0.,1.2,0.,1.2,0.,1.2,,0.0,,0.0
1979-03-09 21:00:28.740 ,1,0,0.,1.2,0.,1.2,0.,1.2,,0.0,,0.0
1979-03-09 21:00:29.940 ,1,0,0.,1.2,0.,1.2,0.,1.2,,0.0,,0.0
1979-03-09 21:00:31.140 ,1,0,0.,1.2,0.,1.2,0.,1.2,,0.0,,0.0
1979-03-09 21:00:32.340 ,1,0,0.,1.2,0.,1.2,0.,1.2,,0.0,,0.0
1979-03-09 21:00:33.540 ,1,0,0.,1.2,0.,1.2,0.,1.2,,0.0,,0.0
1979-03-09 21:00:34.740 ,1,0,0.,1.2,0.,1.2,0.,1.2,,0.0,,0.0
1979-03-09 21:00:35.940 ,1,0,0.,1.2,0.,1.2,0.,1.2,,0.0,,0.0
1979-03-09 21:00:37.140 ,1,0,0.,1.2,0.,1.2,0.,1.2,,0.0,,0.0
1979-03-09 21:00:38.340 ,1,0,0.,1.2,0.,1.2,0.,1.2,,0.0,,0.0
1979-03-09 21:00:39.540 ,1,0,0.,1.2,0.,1.2,0.,1.2,,0.0,,0.0
1979-03-09 21:00:40.740 ,1,0,0.,1.2,0.,1.2,0.,1.2,,0.0,,0.0
1979-03-09 21:00:41.940 ,1,0,0.,1.2,0.,1.2,0.,1.2,,0.0,,0.0
1979-03-09 21:00:43.140 ,1,0,0.,1.2,0.,1.2,0.,1.2,,0.0,,0.0
1979-03-09 21:00:44.340 ,0,0,0.,1.2,0.,1.2,0.,1.2,,0.0,,0.0
1979-03-09 21:00:45.540 ,0,0,0.,1.2,0.,1.2,0.,1.2,,0.0,,0.0
1979-03-09 21:00:46.740 ,0,0,0.,1.2,0.,1.2,0.,1.2,,0.0,,0.0
1979-03-09 21:00:47.940 ,0,0,0.,1.2,0.,1.2,0.,1.2,,0.0,,0.0
1979-03-09 21:00:49.140 ,0,0,0.,1.2,0.,1.2,0.,1.2,,0.0,,0.0
1979-03-09 21:00:50.340 ,0,0,0.,1.2,0.,1.2,0.,1.2,,0.0,,0.0
1979-03-09 21:00:51.540 ,0,0,0.,1.2,0.,1.2,0.,1.2,,0.0,,0.0
1979-03-09 21:00:52.740 ,0,0,0.,1.2,0.,1.2,0.,1.2,,0.0,,0.0
1979-03-09 21:00:53.940 ,0,0,0.,1.2,0.,1.2,0.,1.2,,0.0,,0.0
1979-03-09 21:00:55.140 ,0,0,0.,1.2,0.,1.2,0.,1.2,,0.0,,0.0
1979-03-09 21:00:56.340 ,0,0,0.,1.2,0.,1.2,0.,1.2,,0.0,,0.0
1979-03-09 21:00:57.540 ,0,0,0.,1.2,0.,1.2,0.,1.2,,0.0,,0.0
1979-03-09 21:00:58.740 ,0,0,0.,1.2,0.,1.2,0.,1.2,,0.0,,0.0
1979-03-09 21:00:59.940 ,0,0,0.,1.2,0.,1.2,0.,1.2,,0.0,,0.0
1979-03-09 21:01:01.140 ,0,0,0.,1.2,0.,1.2,0.,1.2,,0.0,,0.0
1979-03-09 21:01:02.340 ,0,0,0.,1.2,0.,1.2,0.,1.2,,0.0,,0.0
1979-03-09 21:01:03.540 ,0,0,0.,1.2,0.,1.2,0.,1.2,,0.0,,0.0
1979-03-09 21:01:04.740 ,0,0,0.,1.2,0.,1.2,0.,1.2,,0.0,,0.0
1979-03-09 21:01:05.940 ,0,0,0.,1.2,0.,1.2,0.,1.2,,0.0,,0.0
1979-03-09 21:01:07.140 ,0,0,0.,1.2,0.,1.2,0.,1.2,,0.0,,0.0
1979-03-09 21:01:08.340 ,0,0,0.,1.2,0.,1.2,0.,1.2,,0.0,,0.0
1979-03-09 21:01:09.540 ,0,0,0.,1.2,0.,1.2,0.,1.2,,0.0,,0.0
1979-03-09 21:01:10.740 ,0,0,0.,1.2,0.,1.2,0.,1.2,,0.0,,0.0
1979-03-09 21:01:11.940 ,0,0,0.,1.2,0.,1.2,0.,1.2,,0.0,,0.0
1979-03-09 21:01:13.140 ,0,0,0.,1.2,0.,1.2,0.,1.2,,0.0,,0.0
1979-03-09 21:01:14.340 ,0,0,0.,1.2,0.,1.2,0.,1.2,,0.0,,0.0
1979-03-09 21:01:15.540 ,0,0,0.,1.2,0.,1.2,0.,1.2,,0.0,,0.0
1979-03-09 21:01:16.740 ,0,0,0.,1.2,0.,1.2,0.,1.2,,0.0,,0.0
1979-03-09 21:01:17.940 ,0,0,0.,1.2,0.,1.2,0.,1.2,,0.0,,0.0
1979-03-09 21:01:19.140 ,0,0,0.,1.2,0.,1.2,0.,1.2,,0.0,,0.0
1979-03-09 21:01:20.340 ,0,0,0.,1.2,0.,1.2,0.,1.2,,0.0,,0.0
1979-03-09 21:01:21.540 ,0,0,0.,1.2,0.,1.2,0.,1.2,,0.0,,0.0
1979-03-09 21:01:22.740 ,0,0,0.,1.2,0.,1.2,0.,1.2,,0.0,,0.0
1979-03-09 21:01:23.940 ,0,0,0.,1.2,0.,1.2,0.,1.2,,0.0,,0.0
1979-03-09 21:01:25.140 ,0,0,0.,1.2,0.,1.2,0.,1.2,,0.0,,0.0
1979-03-09 21:01:26.340 ,0,0,0.,1.2,0.,1.2,0.,1.2,,0.0,,0.0
1979-03-09 21:01:27.540 ,0,0,0.,1.2,0.,1.2,0.,1.2,,0.0,,0.0
1979-03-09 21:01:28.740 ,0,0,0.,1.2,0.,1.2,0.,1.2,,0.0,,0.0
1979-03-09 21:01:29.940 ,0,0,0.,1.2,0.,1.2,0.,1.2,,0.0,,0.0
1979-03-09 21:01:31.140 ,0,0,0.,1.2,0.,1.2,0.,1.2,,0.0,,0.0
1979-03-09 21:01:32.340 ,1,0,0.,1.2,0.,1.2,0.,1.2,,0.0,,0.0
1979-03-09 21:01:33.540 ,1,0,0.,1.2,0.,1.2,0.,1.2,,0.0,,0.0
1979-03-09 21:01:34.740 ,1,0,0.,1.2,0.,1.2,0.,1.2,,0.0,,0.0
1979-03-09 21:01:35.940 ,1,0,0.,1.2,0.,1.2,0.,1.2,,0.0,,0.0
1979-03-09 21:01:37.140 ,1,0,0.,1.2,0.,1.2,0.,1.2,,0.0,,0.0
1979-03-09 21:01:38.340 ,1,0,0.,1.2,0.,1.2,0.,1.2,,0.0,,0.0
1979-03-09 21:01:39.540 ,1,0,0.,1.2,0.,1.2,0.,1.2,,0.0,,0.0
1979-03-09 21:01:40.740 ,1,0,0.,1.2,0.,1.2,0.,1.2,,0.0,,0.0
1979-03-09 21:01:41.940 ,1,0,0.,1.2,0.,1.2,0.,1.2,,0.0,,0.0
1979-03-09 21:01:43.140 ,1,0,0.,1.2,0.,1.2,0.,1.2,,0.0,,0.0
1979-03-09 21:01:44.340 ,1,0,0.,1.2,0.,1.2,0.,1.2,,0.0,,0.0
1979-03-09 21:01:45.540 ,1,0,0.,1.2,0.,1.2,0.,1.2,,0.0,,0.0
1979-03-09 21:01:46.740 ,1,0,0.,1.2,0.,1.2,0.,1.2,,0.0,,0.0
1979-03-09 21:01:47.940 ,1,0,0.,1.2,0.,1.2,0.,1.2,,0.0,,0.0
1979-03-09 21:01:49.140 ,1,0,0.,1.2,0.,1.2,0.,1.2,,0.0,,0.0
1979-03-09 21:01:50.340 ,1,0,0.,1.2,0.,1.2,0.,1.2,,0.0,,0.0
1979-03-09 21:01:51.540 ,1,0,0.,1.2,0.,1.2,0.,1.2,,0.0,,0.0
1979-03-09 21:01:52.740 ,1,0,0.,1.2,0.,1.2,0.,1.2,,0.0,,0.0
1979-03-09 21:01:53.940 ,1,0,0.,1.2,0.,1.2,0.,1.2,,0.0,,0.0
1979-03-09 21:01:55.140 ,1,0,0.,1.2,0.,1.2,0.,1.2,,0.0,,0.0
1979-03-09 21:01:56.340 ,2,0,0.,1.2,0.,1.2,0.,1.2,,0.0,,0.0
1979-03-09 21:01:57.540 ,2,0,0.,1.2,0.,1.2,0.,1.2,,0.0,,0.0
1979-03-09 21:01:58.740 ,2,0,0.,1.2,0.,1.2,0.,1.2,,0.0,,0.0
1979-03-09 21:01:59.940 ,2,0,0.,1.2,0.,1.2,0.,1.2,,0.0,,0.0
1979-03-09 21:02:01.140 ,2,0,0.,1.2,0.,1.2,0.,1.2,,0.0,,0.0
1979-03-09 21:02:02.340 ,2,0,0.,1.2,0.,1.2,0.,1.2,,0.0,,0.0
1979-03-09 21:02:03.540 ,2,0,0.,1.2,0.,1.2,0.,1.2,,0.0,,0.0
1979-03-09 21:02:04.740 ,2,0,0.,1.2,0.,1.2,0.,1.2,,0.0,,0.0
1979-03-09 21:02:05.940 ,2,0,0.,1.2,0.,1.2,0.,1.2,,0.0,,0.0
1979-03-09 21:02:07.140 ,2,0,0.,1.2,0.,1.2,0.,1.2,,0.0,,0.0
1979-03-09 21:02:08.340 ,2,0,0.,1.2,0.,1.2,0.,1.2,,0.0,,0.0
1979-03-09 21:02:09.540 ,2,0,0.,1.2,0.,1.2,0.,1.2,,0.0,,0.0
1979-03-09 21:02:10.740 ,2,0,0.,1.2,0.,1.2,0.,1.2,,0.0,,0.0
1979-03-09 21:02:11.940 ,2,0,0.,1.2,0.,1.2,0.,1.2,,0.0,,0.0
1979-03-09 21:02:13.140 ,2,0,0.,1.2,0.,1.2,0.,1.2,,0.0,,0.0
1979-03-09 21:02:14.340 ,2,0,0.,1.2,0.,1.2,0.,1.2,,0.0,,0.0
1979-03-09 21:02:15.540 ,2,0,0.,1.2,0.,1.2,0.,1.2,,0.0,,0.0
1979-03-09 21:02:16.740 ,2,0,0.,1.2,0.,1.2,0.,1.2,,0.0,,0.0
1979-03-09 21:02:17.940 ,2,0,0.,1.2,0.,1.2,0.,1.2,,0.0,,0.0
1979-03-09 21:02:19.140 ,2,0,0.,1.2,0.,1.2,0.,1.2,,0.0,,0.0
1979-03-09 21:02:20.340 ,3,0,0.,1.2,0.,1.2,0.,1.2,,0.0,,0.0
1979-03-09 21:02:21.540 ,3,0,0.,1.2,0.,1.2,0.,1.2,,0.0,,0.0
1979-03-09 21:02:22.740 ,3,0,0.,1.2,0.,1.2,0.,1.2,,0.0,,0.0
1979-03-09 21:02:23.940 ,3,0,0.,1.2,0.,1.2,0.,1.2,,0.0,,0.0
1979-03-09 21:02:25.140 ,3,0,0.,1.2,0.,1.2,0.,1.2,,0.0,,0.0
1979-03-09 21:02:26.340 ,3,0,0.,1.2,0.,1.2,0.,1.2,,0.0,,0.0
1979-03-09 21:02:27.540 ,3,0,0.,1.2,0.,1.2,0.,1.2,,0.0,,0.0
1979-03-09 21:02:28.740 ,3,0,0.,1.2,0.,1.2,0.,1.2,,0.0,,0.0
1979-03-09 21:02:29.940 ,3,0,0.,1.2,0.,1.2,0.,1.2,,0.0,,0.0
1979-03-09 21:02:31.140 ,3,0,0.,1.2,0.,1.2,0.,1.2,,0.0,,0.0
1979-03-09 21:02:32.340 ,3,0,0.,1.2,0.,1.2,0.,1.2,,0.0,,0.0
1979-03-09 21:02:33.540 ,3,0,0.,1.2,0.,1.2,0.,1.2,,0.0,,0.0
1979-03-09 21:02:34.740 ,3,0,0.,1.2,0.,1.2,0.,1.2,,0.0,,0.0
1979-03-09 21:02:35.940 ,3,0,0.,1.2,0.,1.2,0.,1.2,,0.0,,0.0
1979-03-09 21:02:37.140 ,3,0,0.,1.2,0.,1.2,0.,1.2,,0.0,,0.0
1979-03-09 21:02:38.340 ,3,0,0.,1.2,0.,1.2,0.,1.2,,0.0,,0.0
1979-03-09 21:02:39.540 ,3,0,0.,1.2,0.,1.2,0.,1.2,,0.0,,0.0
1979-03-09 21:02:40.740 ,3,0,0.,1.2,0.,1.2,0.,1.2,,0.0,,0.0
1979-03-09 21:02:41.940 ,3,0,0.,1.2,0.,1.2,0.,1.2,,0.0,,0.0
1979-03-09 21:02:43.140 ,3,0,0.,1.2,0.,1.2,0.,1.2,,0.0,,0.0
1979-03-09 21:02:44.340 ,4,0,0.,1.2,0.,1.2,0.,1.2,,0.0,,0.0
1979-03-09 21:02:45.540 ,4,0,0.,1.2,0.,1.2,0.,1.2,,0.0,,0.0
1979-03-09 21:02:46.740 ,4,0,0.,1.2,0.,1.2,0.,1.2,,0.0,,0.0
1979-03-09 21:02:47.940 ,4,0,0.,1.2,0.,1.2,0.,1.2,,0.0,,0.0
1979-03-09 21:02:49.140 ,4,0,0.,1.2,0.,1.2,0.,1.2,,0.0,,0.0
1979-03-09 21:02:50.340 ,4,0,0.,1.2,0.,1.2,0.,1.2,,0.0,,0.0
1979-03-09 21:02:51.540 ,4,0,0.,1.2,0.,1.2,0.,1.2,,0.0,,0.0
1979-03-09 21:02:52.740 ,4,0,0.,1.2,0.,1.2,0.,1.2,,0.0,,0.0
1979-03-09 21:02:53.940 ,4,0,0.,1.2,0.,1.2,0.,1.2,,0.0,,0.0
1979-03-09 21:02:55.140 ,4,0,0.,1.2,0.,1.2,0.,1.2,,0.0,,0.0
1979-03-09 21:02:56.340 ,4,0,0.,1.2,0.,1.2,0.,1.2,,0.0,,0.0
1979-03-09 21:02:57.540 ,4,0,0.,1.2,0.,1.2,0.,1.2,,0.0,,0.0
1979-03-09 21:02:58.740 ,4,0,0.,1.2,0.,1.2,0.,1.2,,0.0,,0.0
1979-03-09 21:02:59.940 ,4,0,0.,1.2,0.,1.2,0.,1.2,,0.0,,0.0
1979-03-09 21:03:01.140 ,4,0,0.,1.2,0.,1.2,0.,1.2,,0.0,,0.0
1979-03-09 21:03:02.340 ,4,0,0.,1.2,0.,1.2,0.,1.2,,0.0,,0.0
1979-03-09 21:03:03.540 ,4,0,0.,1.2,0.,1.2,0.,1.2,,0.0,,0.0
1979-03-09 21:03:04.740 ,4,0,0.,1.2,0.,1.2,0.,1.2,,0.0,,0.0
1979-03-09 21:03:05.940 ,4,0,0.,1.2,0.,1.2,0.,1.2,,0.0,,0.0
1979-03-09 21:03:07.140 ,4,0,0.,1.2,0.,1.2,0.,1.2,,0.0,,0.0
1979-03-09 21:03:08.340 ,5,0,0.,1.2,0.,1.2,0.,1.2,,0.0,,0.0
1979-03-09 21:03:09.540 ,5,0,0.,1.2,0.,1.2,0.,1.2,,0.0,,0.0
1979-03-09 21:03:10.740 ,5,0,0.,1.2,0.,1.2,0.,1.2,,0.0,,0.0
1979-03-09 21:03:11.940 ,5,0,0.,1.2,0.,1.2,0.,1.2,,0.0,,0.0
1979-03-09 21:03:13.140 ,5,0,0.,1.2,0.,1.2,0.,1.2,,0.0,,0.0
1979-03-09 21:03:14.340 ,5,0,0.,1.2,0.,1.2,0.,1.2,,0.0,,0.0
1979-03-09 21:03:15.540 ,5,0,0.,1.2,0.,1.2,0.,1.2,,0.0,,0.0
1979-03-09 21:03:16.740 ,5,0,0.,1.2,0.,1.2,0.,1.2,,0.0,,0.0
1979-03-09 21:03:17.940 ,5,0,0.,1.2,0.,1.2,0.,1.2,,0.0,,0.0
1979-03-09 21:03:19.140 ,5,0,0.,1.2,0.,1.2,0.,1.2,,0.0,,0.0
1979-03-09 21:03:20.340 ,5,0,0.,1.2,0.,1.2,0.,1.2,,0.0,,0.0
1979-03-09 21:03:21.540 ,5,0,0.,1.2,0.,1.2,0.,1.2,,0.0,,0.0
1979-03-09 21:03:22.740 ,5,0,0.,1.2,0.,1.2,0.,1.2,,0.0,,0.0
1979-03-09 21:03:23.940 ,5,0,0.,1.2,0.,1.2,0.,1.2,,0.0,,0.0
1979-03-09 21:03:25.140 ,5,0,0.,1.2,0.,1.2,0.,1.2,,0.0,,0.0
1979-03-09 21:03:26.340 ,5,0,0.,1.2,0.,1.2,0.,1.2,,0.0,,0.0
1979-03-09 21:03:27.540 ,5,0,0.,1.2,0.,1.2,0.,1.2,,0.0,,0.0
1979-03-09 21:03:28.740 ,5,0,0.,1.2,0.,1.2,0.,1.2,,0.0,,0.0
1979-03-09 21:03:29.940 ,5,0,0.,1.2,0.,1.2,0.,1.2,,0.0,,0.0
1979-03-09 21:03:31.140 ,5,0,0.,1.2,0.,1.2,0.,1.2,,0.0,,0.0
1979-03-09 21:03:32.340 ,6,0,0.,1.2,0.,1.2,0.,1.2,,0.0,,0.0
1979-03-09 21:03:33.540 ,6,0,0.,1.2,0.,1.2,0.,1.2,,0.0,,0.0
1979-03-09 21:03:34.740 ,6,0,0.,1.2,0.,1.2,0.,1.2,,0.0,,0.0
1979-03-09 21:03:35.940 ,6,0,0.,1.2,0.,1.2,0.,1.2,,0.0,,0.0
1979-03-09 21:03:37.140 ,6,0,0.,1.2,0.,1.2,0.,1.2,,0.0,,0.0
1979-03-09 21:03:38.340 ,6,0,0.,1.2,0.,1.2,0.,1.2,,0.0,,0.0
1979-03-09 21:03:39.540 ,6,0,0.,1.2,0.,1.2,0.,1.2,,0.0,,0.0
1979-03-09 21:03:40.740 ,6,0,0.,1.2,0.,1.2,0.,1.2,,0.0,,0.0
1979-03-09 21:03:41.940 ,6,0,0.,1.2,0.,1.2,0.,1.2,,0.0,,0.0
1979-03-09 21:03:43.140 ,6,0,0.,1.2,0.,1.2,0.,1.2,,0.0,,0.0
1979-03-09 21:03:44.340 ,6,0,0.,1.2,0.,1.2,0.,1.2,,0.0,,0.0
1979-03-09 21:03:45.540 ,6,0,0.,1.2,0.,1.2,0.,1.2,,0.0,,0.0
1979-03-09 21:03:46.740 ,6,0,0.,1.2,0.,1.2,0.,1.2,,0.0,,0.0
1979-03-09 21:03:47.940 ,6,0,0.,1.2,0.,1.2,0.,1.2,,0.0,,0.0
1979-03-09 21:03:49.140 ,6,0,0.,1.2,0.,1.2,0.,1.2,,0.0,,0.0
1979-03-09 21:03:50.340 ,6,0,0.,1.2,0.,1.2,0.,1.2,,0.0,,0.0
1979-03-09 21:03:51.540 ,6,0,0.,1.2,0.,1.2,0.,1.2,,0.0,,0.0
1979-03-09 21:03:52.740 ,6,0,0.,1.2,0.,1.2,0.,1.2,,0.0,,0.0
1979-03-09 21:03:53.940 ,6,0,0.,1.2,0.,1.2,0.,1.2,,0.0,,0.0
1979-03-09 21:03:55.140 ,6,0,0.,1.2,0.,1.2,0.,1.2,,0.0,,0.0
1979-03-09 21:03:56.340 ,7,0,0.,1.2,0.,1.2,0.,1.2,,0.0,,0.0
1979-03-09 21:03:57.540 ,7,0,0.,1.2,0.,1.2,0.,1.2,,0.0,,0.0
1979-03-09 21:03:58.740 ,7,0,0.,1.2,0.,1.2,0.,1.2,,0.0,,0.0
1979-03-09 21:03:59.940 ,7,0,0.,1.2,0.,1.2,0.,1.2,,0.0,,0.0
1979-03-09 21:04:01.140 ,7,0,0.,1.2,0.,1.2,0.,1.2,,0.0,,0.0
1979-03-09 21:04:02.340 ,7,0,0.,1.2,0.,1.2,0.,1.2,,0.0,,0.0
1979-03-09 21:04:03.540 ,7,0,0.,1.2,0.,1.2,0.,1.2,,0.0,,0.0
1979-03-09 21:04:04.740 ,7,0,0.,1.2,0.,1.2,0.,1.2,,0.0,,0.0
1979-03-09 21:04:05.940 ,7,0,0.,1.2,0.,1.2,0.,1.2,,0.0,,0.0
1979-03-09 21:04:07.140 ,7,0,0.,1.2,0.,1.2,0.,1.2,,0.0,,0.0
1979-03-09 21:04:08.340 ,7,0,0.,1.2,0.,1.2,0.,1.2,,0.0,,0.0
1979-03-09 21:04:09.540 ,7,0,0.,1.2,0.,1.2,0.,1.2,,0.0,,0.0
1979-03-09 21:04:10.740 ,7,0,0.,1.2,0.,1.2,0.,1.2,,0.0,,0.0
1979-03-09 21:04:11.940 ,7,0,0.,1.2,0.,1.2,0.,1.2,,0.0,,0.0
1979-03-09 21:04:13.140 ,7,0,0.,1.2,0.,1.2,0.,1.2,,0.0,,0.0
1979-03-09 21:04:14.340 ,7,0,0.,1.2,0.,1.2,0.,1.2,,0.0,,0.0
1979-03-09 21:04:15.540 ,7,0,0.,1.2,0.,1.2,0.,1.2,,0.0,,0.0
1979-03-09 21:04:16.740 ,7,0,0.,1.2,0.,1.2,0.,1.2,,0.0,,0.0
1979-03-09 21:04:17.940 ,7,0,0.,1.2,0.,1.2,0.,1.2,,0.0,,0.0
1979-03-09 21:04:19.140 ,7,0,0.,1.2,0.,1.2,0.,1.2,,0.0,,0.0
1979-03-09 21:04:20.340 ,7,0,0.,1.2,0.,1.2,0.,1.2,,0.0,,0.0
1979-03-09 21:04:21.540 ,7,0,0.,1.2,0.,1.2,0.,1.2,,0.0,,0.0
1979-03-09 21:04:22.740 ,7,0,0.,1.2,0.,1.2,0.,1.2,,0.0,,0.0
1979-03-09 21:04:23.940 ,7,0,0.,1.2,0.,1.2,0.,1.2,,0.0,,0.0
1979-03-09 21:04:25.140 ,7,0,0.,1.2,0.,1.2,0.,1.2,,0.0,,0.0
1979-03-09 21:04:26.340 ,7,0,0.,1.2,0.,1.2,0.,1.2,,0.0,,0.0
1979-03-09 21:04:27.540 ,7,0,0.,1.2,0.,1.2,0.,1.2,,0.0,,0.0
1979-03-09 21:04:28.740 ,7,0,0.,1.2,0.,1.2,0.,1.2,,0.0,,0.0
1979-03-09 21:04:29.940 ,7,0,0.,1.2,0.,1.2,0.,1.2,,0.0,,0.0
1979-03-09 21:04:31.140 ,7,0,0.,1.2,0.,1.2,0.,1.2,,0.0,,0.0
1979-03-09 21:04:32.340 ,7,0,0.,1.2,0.,1.2,0.,1.2,,0.0,,0.0
1979-03-09 21:04:33.540 ,7,0,0.,1.2,0.,1.2,0.,1.2,,0.0,,0.0
1979-03-09 21:04:34.740 ,7,0,0.,1.2,0.,1.2,0.,1.2,,0.0,,0.0
1979-03-09 21:04:35.940 ,7,0,0.,1.2,0.,1.2,0.,1.2,,0.0,,0.0
1979-03-09 21:04:37.140 ,7,0,0.,1.2,0.,1.2,0.,1.2,,0.0,,0.0
1979-03-09 21:04:38.340 ,7,0,0.,1.2,0.,1.2,0.,1.2,,0.0,,0.0
1979-03-09 21:04:39.540 ,7,0,0.,1.2,0.,1.2,0.,1.2,,0.0,,0.0
1979-03-09 21:04:40.740 ,7,0,0.,1.2,0.,1.2,0.,1.2,,0.0,,0.0
1979-03-09 21:04:41.940 ,7,0,0.,1.2,0.,1.2,0.,1.2,,0.0,,0.0
1979-03-09 21:04:43.140 ,7,0,0.,1.2,0.,1.2,0.,1.2,,0.0,,0.0
1979-03-09 21:04:44.340 ,6,0,0.,1.2,0.,1.2,0.,1.2,,0.0,,0.0
1979-03-09 21:04:45.540 ,6,0,0.,1.2,0.,1.2,0.,1.2,,0.0,,0.0
1979-03-09 21:04:46.740 ,6,0,0.,1.2,0.,1.2,0.,1.2,,0.0,,0.0
1979-03-09 21:04:47.940 ,6,0,0.,1.2,0.,1.2,0.,1.2,,0.0,,0.0
1979-03-09 21:04:49.140 ,6,0,0.,1.2,0.,1.2,0.,1.2,,0.0,,0.0
1979-03-09 21:04:50.340 ,6,0,0.,1.2,0.,1.2,0.,1.2,,0.0,,0.0
1979-03-09 21:04:51.540 ,6,0,0.,1.2,0.,1.2,0.,1.2,,0.0,,0.0
1979-03-09 21:04:52.740 ,6,0,0.,1.2,0.,1.2,0.,1.2,,0.0,,0.0
1979-03-09 21:04:53.940 ,6,0,0.,1.2,0.,1.2,0.,1.2,,0.0,,0.0
1979-03-09 21:04:55.140 ,6,0,0.,1.2,0.,1.2,0.,1.2,,0.0,,0.0
1979-03-09 21:04:56.340 ,6,0,0.,1.2,0.,1.2,0.,1.2,,0.0,,0.0
1979-03-09 21:04:57.540 ,6,0,0.,1.2,0.,1.2,0.,1.2,,0.0,,0.0
1979-03-09 21:04:58.740 ,6,0,0.,1.2,0.,1.2,0.,1.2,,0.0,,0.0
1979-03-09 21:04:59.940 ,6,0,0.,1.2,0.,1.2,0.,1.2,,0.0,,0.0
1979-03-09 21:05:01.140 ,6,0,0.,1.2,0.,1.2,0.,1.2,,0.0,,0.0
1979-03-09 21:05:02.340 ,6,0,0.,1.2,0.,1.2,0.,1.2,,0.0,,0.0
1979-03-09 21:05:03.540 ,6,0,0.,1.2,0.,1.2,0.,1.2,,0.0,,0.0
1979-03-09 21:05:04.740 ,6,0,0.,1.2,0.,1.2,0.,1.2,,0.0,,0.0
1979-03-09 21:05:05.940 ,6,0,0.,1.2,0.,1.2,0.,1.2,,0.0,,0.0
1979-03-09 21:05:07.140 ,6,0,0.,1.2,0.,1.2,0.,1.2,,0.0,,0.0
1979-03-09 21:05:08.340 ,5,0,0.,1.2,0.,1.2,0.,1.2,,0.0,,0.0
1979-03-09 21:05:09.540 ,5,0,0.,1.2,0.,1.2,0.,1.2,,0.0,,0.0
1979-03-09 21:05:10.740 ,5,0,0.,1.2,0.,1.2,0.,1.2,,0.0,,0.0
1979-03-09 21:05:11.940 ,5,0,0.,1.2,0.,1.2,0.,1.2,,0.0,,0.0
1979-03-09 21:05:13.140 ,5,0,0.,1.2,0.,1.2,0.,1.2,,0.0,,0.0
1979-03-09 21:05:14.340 ,5,0,0.,1.2,0.,1.2,0.,1.2,,0.0,,0.0
1979-03-09 21:05:15.540 ,5,0,0.,1.2,0.,1.2,0.,1.2,,0.0,,0.0
1979-03-09 21:05:16.740 ,5,0,0.,1.2,0.,1.2,0.,1.2,,0.0,,0.0
1979-03-09 21:05:17.940 ,5,0,0.,1.2,0.,1.2,0.,1.2,,0.0,,0.0
1979-03-09 21:05:19.140 ,5,0,0.,1.2,0.,1.2,0.,1.2,,0.0,,0.0
1979-03-09 21:05:20.340 ,5,0,0.,1.2,0.,1.2,0.,1.2,,0.0,,0.0
1979-03-09 21:05:21.540 ,5,0,0.,1.2,0.,1.2,0.,1.2,,0.0,,0.0
1979-03-09 21:05:22.740 ,5,0,0.,1.2,0.,1.2,0.,1.2,,0.0,,0.0
1979-03-09 21:05:23.940 ,5,0,0.,1.2,0.,1.2,0.,1.2,,0.0,,0.0
1979-03-09 21:05:25.140 ,5,0,0.,1.2,0.,1.2,0.,1.2,,0.0,,0.0
1979-03-09 21:05:26.340 ,5,0,0.,1.2,0.,1.2,0.,1.2,,0.0,,0.0
1979-03-09 21:05:27.540 ,5,0,0.,1.2,0.,1.2,0.,1.2,,0.0,,0.0
1979-03-09 21:05:28.740 ,5,0,0.,1.2,0.,1.2,0.,1.2,,0.0,,0.0
1979-03-09 21:05:29.940 ,5,0,0.,1.2,0.,1.2,0.,1.2,,0.0,,0.0
1979-03-09 21:05:31.140 ,5,0,0.,1.2,0.,1.2,0.,1.2,,0.0,,0.0
1979-03-09 21:05:32.340 ,4,0,0.,1.2,0.,1.2,0.,1.2,,0.0,,0.0
1979-03-09 21:05:33.540 ,4,0,0.,1.2,0.,1.2,0.,1.2,,0.0,,0.0
1979-03-09 21:05:34.740 ,4,0,0.,1.2,0.,1.2,0.,1.2,,0.0,,0.0
1979-03-09 21:05:35.940 ,4,0,0.,1.2,0.,1.2,0.,1.2,,0.0,,0.0
1979-03-09 21:05:37.140 ,4,0,0.,1.2,0.,1.2,0.,1.2,,0.0,,0.0
1979-03-09 21:05:38.340 ,4,0,0.,1.2,0.,1.2,0.,1.2,,0.0,,0.0
1979-03-09 21:05:39.540 ,4,0,0.,1.2,0.,1.2,0.,1.2,,0.0,,0.0
1979-03-09 21:05:40.740 ,4,0,0.,1.2,0.,1.2,0.,1.2,,0.0,,0.0
1979-03-09 21:05:41.940 ,4,0,0.,1.2,0.,1.2,0.,1.2,,0.0,,0.0
1979-03-09 21:05:43.140 ,4,0,0.,1.2,0.,1.2,0.,1.2,,0.0,,0.0
1979-03-09 21:05:44.340 ,4,0,0.,1.2,0.,1.2,0.,1.2,,0.0,,0.0
1979-03-09 21:05:45.540 ,4,0,0.,1.2,0.,1.2,0.,1.2,,0.0,,0.0
1979-03-09 21:05:46.740 ,4,0,0.,1.2,0.,1.2,0.,1.2,,0.0,,0.0
1979-03-09 21:05:47.940 ,4,0,0.,1.2,0.,1.2,0.,1.2,,0.0,,0.0
1979-03-09 21:05:49.140 ,4,0,0.,1.2,0.,1.2,0.,1.2,,0.0,,0.0
1979-03-09 21:05:50.340 ,4,0,0.,1.2,0.,1.2,0.,1.2,,0.0,,0.0
1979-03-09 21:05:51.540 ,4,0,0.,1.2,0.,1.2,0.,1.2,,0.0,,0.0
1979-03-09 21:05:52.740 ,4,0,0.,1.2,0.,1.2,0.,1.2,,0.0,,0.0
1979-03-09 21:05:53.940 ,4,0,0.,1.2,0.,1.2,0.,1.2,,0.0,,0.0
1979-03-09 21:05:55.140 ,4,0,0.,1.2,0.,1.2,0.,1.2,,0.0,,0.0
1979-03-09 21:05:56.340 ,3,0,0.,1.2,0.,1.2,0.,1.2,,0.0,,0.0
1979-03-09 21:05:57.540 ,3,0,0.,1.2,0.,1.2,0.,1.2,,0.0,,0.0
1979-03-09 21:05:58.740 ,3,0,0.,1.2,0.,1.2,0.,1.2,,0.0,,0.0
1979-03-09 21:05:59.940 ,3,0,0.,1.2,0.,1.2,0.,1.2,,0.0,,0.0
1979-03-09 21:06:01.140 ,3,0,0.,1.2,0.,1.2,0.,1.2,,0.0,,0.0
1979-03-09 21:06:02.340 ,3,0,0.,1.2,0.,1.2,0.,1.2,,0.0,,0.0
1979-03-09 21:06:03.540 ,3,0,0.,1.2,0.,1.2,0.,1.2,,0.0,,0.0
1979-03-09 21:06:04.740 ,3,0,0.,1.2,0.,1.2,0.,1.2,,0.0,,0.0
1979-03-09 21:06:05.940 ,3,0,0.,1.2,0.,1.2,0.,1.2,,0.0,,0.0
1979-03-09 21:06:07.140 ,3,0,0.,1.2,0.,1.2,0.,1.2,,0.0,,0.0
1979-03-09 21:06:08.340 ,3,0,0.,1.2,0.,1.2,0.,1.2,,0.0,,0.0
1979-03-09 21:06:09.540 ,3,0,0.,1.2,0.,1.2,0.,1.2,,0.0,,0.0
1979-03-09 21:06:10.740 ,3,0,0.,1.2,0.,1.2,0.,1.2,,0.0,,0.0
1979-03-09 21:06:11.940 ,3,0,0.,1.2,0.,1.2,0.,1.2,,0.0,,0.0
1979-03-09 21:06:13.140 ,3,0,0.,1.2,0.,1.2,0.,1.2,,0.0,,0.0
1979-03-09 21:06:14.340 ,3,0,0.,1.2,0.,1.2,0.,1.2,,0.0,,0.0
1979-03-09 21:06:15.540 ,3,0,0.,1.2,0.,1.2,0.,1.2,,0.0,,0.0
1979-03-09 21:06:16.740 ,3,0,0.,1.2,0.,1.2,0.,1.2,,0.0,,0.0
1979-03-09 21:06:17.940 ,3,0,0.,1.2,0.,1.2,0.,1.2,,0.0,,0.0
1979-03-09 21:06:19.140 ,3,0,0.,1.2,0.,1.2,0.,1.2,,0.0,,0.0
1979-03-09 21:06:20.340 ,2,0,0.,1.2,0.,1.2,0.,1.2,,0.0,,0.0
1979-03-09 21:06:21.540 ,2,0,0.,1.2,0.,1.2,0.,1.2,,0.0,,0.0
1979-03-09 21:06:22.740 ,2,0,0.,1.2,0.,1.2,0.,1.2,,0.0,,0.0
1979-03-09 21:06:23.940 ,2,0,0.,1.2,0.,1.2,0.,1.2,,0.0,,0.0
1979-03-09 21:06:25.140 ,2,0,0.,1.2,0.,1.2,0.,1.2,,0.0,,0.0
1979-03-09 21:06:26.340 ,2,0,0.,1.2,0.,1.2,0.,1.2,,0.0,,0.0
1979-03-09 21:06:27.540 ,2,0,0.,1.2,0.,1.2,0.,1.2,,0.0,,0.0
1979-03-09 21:06:28.740 ,2,0,0.,1.2,0.,1.2,0.,1.2,,0.0,,0.0
1979-03-09 21:06:29.940 ,2,0,0.,1.2,0.,1.2,0.,1.2,,0.0,,0.0
1979-03-09 21:06:31.140 ,2,0,0.,1.2,0.,1.2,0.,1.2,,0.0,,0.0
1979-03-09 21:06:32.340 ,2,0,0.,1.2,0.,1.2,0.,1.2,,0.0,,0.0
1979-03-09 21:06:33.540 ,2,0,0.,1.2,0.,1.2,0.,1.2,,0.0,,0.0
1979-03-09 21:06:34.740 ,2,0,0.,1.2,0.,1.2,0.,1.2,,0.0,,0.0
1979-03-09 21:06:35.940 ,2,0,0.,1.2,0.,1.2,0.,1.2,,0.0,,0.0
1979-03-09 21:06:37.140 ,2,0,0.,1.2,0.,1.2,0.,1.2,,0.0,,0.0
1979-03-09 21:06:38.340 ,2,0,0.,1.2,0.,1.2,0.,1.2,,0.0,,0.0
1979-03-09 21:06:39.540 ,2,0,0.,1.2,0.,1.2,0.,1.2,,0.0,,0.0
1979-03-09 21:06:40.740 ,2,0,0.,1.2,0.,1.2,0.,1.2,,0.0,,0.0
1979-03-09 21:06:41.940 ,2,0,0.,1.2,0.,1.2,0.,1.2,,0.0,,0.0
1979-03-09 21:06:43.140 ,2,0,0.,1.2,0.,1.2,0.,1.2,,0.0,,0.0
1979-03-09 21:06:44.340 ,1,0,0.,1.2,0.,1.2,0.,1.2,,0.0,,0.0
1979-03-09 21:06:45.540 ,1,0,0.,1.2,0.,1.2,0.,1.2,,0.0,,0.0
1979-03-09 21:06:46.740 ,1,0,0.,1.2,0.,1.2,0.,1.2,,0.0,,0.0
1979-03-09 21:06:47.940 ,1,0,0.,1.2,0.,1.2,0.,1.2,,0.0,,0.0
1979-03-09 21:06:49.140 ,1,0,0.,1.2,0.,1.2,0.,1.2,,0.0,,0.0
1979-03-09 21:06:50.340 ,1,0,0.,1.2,0.,1.2,0.,1.2,,0.0,,0.0
1979-03-09 21:06:51.540 ,1,0,0.,1.2,0.,1.2,0.,1.2,,0.0,,0.0
1979-03-09 21:06:52.740 ,1,0,0.,1.2,0.,1.2,0.,1.2,,0.0,,0.0
1979-03-09 21:06:53.940 ,1,0,0.,1.2,0.,1.2,0.,1.2,,0.0,,0.0
1979-03-09 21:06:55.140 ,1,0,0.,1.2,0.,1.2,0.,1.2,,0.0,,0.0
1979-03-09 21:06:56.340 ,1,0,0.,1.2,0.,1.2,0.,1.2,,0.0,,0.0
1979-03-09 21:06:57.540 ,1,0,0.,1.2,0.,1.2,0.,1.2,,0.0,,0.0
1979-03-09 21:06:58.740 ,1,0,0.,1.2,0.,1.2,0.,1.2,,0.0,,0.0
1979-03-09 21:06:59.940 ,1,0,0.,1.2,0.,1.2,0.,1.2,,0.0,,0.0
1979-03-09 21:07:01.140 ,1,0,0.,1.2,0.,1.2,0.,1.2,,0.0,,0.0
1979-03-09 21:07:02.340 ,1,0,0.,1.2,0.,1.2,0.,1.2,,0.0,,0.0
1979-03-09 21:07:03.540 ,1,0,0.,1.2,0.,1.2,0.,1.2,,0.0,,0.0
1979-03-09 21:07:04.740 ,1,0,0.,1.2,0.,1.2,0.,1.2,,0.0,,0.0
1979-03-09 21:07:05.940 ,1,0,0.,1.2,0.,1.2,0.,1.2,,0.0,,0.0
1979-03-09 21:07:07.140 ,1,0,0.,1.2,0.,1.2,0.,1.2,,0.0,,0.0
1979-03-09 21:07:08.340 ,0,0,0.,1.2,0.,1.2,0.,1.2,,0.0,,0.0
1979-03-09 21:07:09.540 ,0,0,0.,1.2,0.,1.2,0.,1.2,,0.0,,0.0
1979-03-09 21:07:10.740 ,0,0,0.,1.2,0.,1.2,0.,1.2,,0.0,,0.0
1979-03-09 21:07:11.940 ,0,0,0.,1.2,0.,1.2,0.,1.2,,0.0,,0.0
1979-03-09 21:07:13.140 ,0,0,0.,1.2,0.,1.2,0.,1.2,,0.0,,0.0
1979-03-09 21:07:14.340 ,0,0,0.,1.2,0.,1.2,0.,1.2,,0.0,,0.0
1979-03-09 21:07:15.540 ,0,0,0.,1.2,0.,1.2,0.,1.2,,0.0,,0.0
1979-03-09 21:07:16.740 ,0,0,0.,1.2,0.,1.2,0.,1.2,,0.0,,0.0
1979-03-09 21:07:17.940 ,0,0,0.,1.2,0.,1.2,0.,1.2,,0.0,,0.0
1979-03-09 21:07:19.140 ,0,0,0.,1.2,0.,1.2,0.,1.2,,0.0,,0.0
1979-03-09 21:07:20.340 ,0,0,0.,1.2,0.,1.2,0.,1.2,,0.0,,0.0
1979-03-09 21:07:21.540 ,0,0,0.,1.2,0.,1.2,0.,1.2,,0.0,,0.0
1979-03-09 21:07:22.740 ,0,0,0.,1.2,0.,1.2,0.,1.2,,0.0,,0.0
1979-03-09 21:07:23.940 ,0,0,0.,1.2,0.,1.2,0.,1.2,,0.0,,0.0
1979-03-09 21:07:25.140 ,0,0,0.,1.2,0.,1.2,0.,1.2,,0.0,,0.0
1979-03-09 21:07:26.340 ,0,0,0.,1.2,0.,1.2,0.,1.2,,0.0,,0.0
1979-03-09 21:07:27.540 ,0,0,0.,1.2,0.,1.2,0.,1.2,,0.0,,0.0
1979-03-09 21:07:28.740 ,0,0,0.,1.2,0.,1.2,0.,1.2,,0.0,,0.0
1979-03-09 21:07:29.940 ,0,0,0.,1.2,0.,1.2,0.,1.2,,0.0,,0.0
1979-03-09 21:07:31.140 ,0,0,0.,1.2,0.,1.2,0.,1.2,,0.0,,0.0
1979-03-09 21:07:32.340 ,0,0,0.,1.2,0.,1.2,0.,1.2,,0.0,,0.0
1979-03-09 21:07:33.540 ,0,0,0.,1.2,0.,1.2,0.,1.2,,0.0,,0.0
1979-03-09 21:07:34.740 ,0,0,0.,1.2,0.,1.2,0.,1.2,,0.0,,0.0
1979-03-09 21:07:35.940 ,0,0,0.,1.2,0.,1.2,0.,1.2,,0.0,,0.0
1979-03-09 21:07:37.140 ,0,0,0.,1.2,0.,1.2,0.,1.2,,0.0,,0.0
1979-03-09 21:07:38.340 ,0,0,0.,1.2,0.,1.2,0.,1.2,,0.0,,0.0
1979-03-09 21:07:39.540 ,0,0,0.,1.2,0.,1.2,0.,1.2,,0.0,,0.0
1979-03-09 21:07:40.740 ,0,0,0.,1.2,0.,1.2,0.,1.2,,0.0,,0.0
1979-03-09 21:07:41.940 ,0,0,0.,1.2,0.,1.2,0.,1.2,,0.0,,0.0
1979-03-09 21:07:43.140 ,0,0,0.,1.2,0.,1.2,0.,1.2,,0.0,,0.0
1979-03-09 21:07:44.340 ,0,0,0.,1.2,0.,1.2,0.,1.2,,0.0,,0.0
1979-03-09 21:07:45.540 ,0,0,0.,1.2,0.,1.2,0.,1.2,,0.0,,0.0
1979-03-09 21:07:46.740 ,0,0,0.,1.2,0.,1.2,0.,1.2,,0.0,,0.0
1979-03-09 21:07:47.940 ,0,0,0.,1.2,0.,1.2,0.,1.2,,0.0,,0.0
1979-03-09 21:07:49.140 ,0,0,0.,1.2,0.,1.2,0.,1.2,,0.0,,0.0
1979-03-09 21:07:50.340 ,0,0,0.,1.2,0.,1.2,0.,1.2,,0.0,,0.0
1979-03-09 21:07:51.540 ,0,0,0.,1.2,0.,1.2,0.,1.2,,0.0,,0.0
1979-03-09 21:07:52.740 ,0,0,0.,1.2,0.,1.2,0.,1.2,,0.0,,0.0
1979-03-09 21:07:53.940 ,0,0,0.,1.2,0.,1.2,0.,1.2,,0.0,,0.0
1979-03-09 21:07:55.140 ,0,0,0.,1.2,0.,1.2,0.,1.2,,0.0,,0.0
1979-03-09 21:07:56.340 ,1,0,0.,1.2,0.,1.2,0.,1.2,,0.0,,0.0
1979-03-09 21:07:57.540 ,1,0,0.,1.2,0.,1.2,0.,1.2,,0.0,,0.0
1979-03-09 21:07:58.740 ,1,0,0.,1.2,0.,1.2,0.,1.2,,0.0,,0.0
1979-03-09 21:07:59.940 ,1,0,0.,1.2,0.,1.2,0.,1.2,,0.0,,0.0
1979-03-09 21:08:01.140 ,1,0,0.,1.2,0.,1.2,0.,1.2,,0.0,,0.0
1979-03-09 21:08:02.340 ,1,0,0.,1.2,0.,1.2,0.,1.2,,0.0,,0.0
1979-03-09 21:08:03.540 ,1,0,0.,1.2,0.,1.2,0.,1.2,,0.0,,0.0
1979-03-09 21:08:04.740 ,1,0,0.,1.2,0.,1.2,0.,1.2,,0.0,,0.0
1979-03-09 21:08:05.940 ,1,0,0.,1.2,0.,1.2,0.,1.2,,0.0,,0.0
1979-03-09 21:08:07.140 ,1,0,0.,1.2,0.,1.2,0.,1.2,,0.0,,0.0
1979-03-09 21:08:08.340 ,1,0,0.,1.2,0.,1.2,0.,1.2,,0.0,,0.0
1979-03-09 21:08:09.540 ,1,0,0.,1.2,0.,1.2,0.,1.2,,0.0,,0.0